Simultaneous Nadir Overpasses (SNOs) Predictions

Prediction of SNOs between GOES-15 and FY3D Satellite Orbit:

Table of predicted SNOs for the next 14.0 days since TLE Epoch: 3/23/2024
Index Date Time (GOES-15) GOES-15 Lat,Lon FY3D Lat,Lon Distance(km) Time Diff (sec)
1 03/23/2024 10:39:08 -0.08, 61.23 -1.04, 56.94 489.28 80
2 03/24/2024 10:17:58 -0.09, 61.23 -0.06, 61.43 22.12 80
3 03/26/2024 22:21:38 0.08, 61.17 0.24, 60.59 66.97 80
4 03/27/2024 22:05:48 0.09, 61.18 -0.81, 65.07 444.23 80
5 03/29/2024 10:28:05 -0.08, 61.25 -0.42, 59.72 175.24 80
6 03/30/2024 10:06:55 -0.09, 61.27 0.58, 64.20 335.27 80
7 03/31/2024 22:29:04 0.09, 61.22 0.63, 58.88 266.66 80
8 04/01/2024 22:13:14 0.09, 61.23 -0.38, 63.37 243.66 80
9 04/03/2024 10:35:31 -0.09, 61.32 -0.84, 58.02 376.70 80
10 04/04/2024 10:14:21 -0.10, 61.34 0.17, 62.51 133.25 80
11 04/05/2024 22:36:30 0.09, 61.30 1.02, 57.18 469.69 80
